Location: Albuquerque Trailhead
(34.7934°N, 106.3736°W)
Time: 02:13:54
(UTC+00:00)

Cosmos 2026 Rocket - Pass Details

Date: 20 June 2021
Orbit: 939 x 1001 km, 82.9° (Epoch: 27 July)

Event Time Altitude Azimuth Distance (km) Brightness Sun altitude
Exits shadow 09:14:11 53° 228° (SW) 1,188 4.0 -24.4°
Maximum altitude 09:15:25 64° 278° (W) 1,079 4.0 -24.3°
Drops below altitude 10° 09:21:42 10° 360° (N) 2,761 7.1 -23.6°
Sets 09:24:17 0° 3° (N) 3,720 8.0 -23.3°
